{"data":{"norad_id":56166,"epoch":"2026-09-21T16:20:33.226368Z","epoch_age_seconds":84696,"freshness":"FRESH","line1":"1 56166U 23050E   26264.68094012  .00000014  00000+0  24877-5 0  9991","line2":"2 56166  81.0035 338.0613 0021700  47.7007 312.5986 13.89450860175508","mean_motion":13.8945086,"eccentricity":0.00217,"inclination_deg":81.0035,"raan_deg":338.0613,"arg_perigee_deg":47.7007,"mean_anomaly_deg":312.5986,"bstar":2.4877e-6,"rev_number":17550,"period_min":103.63806604863,"perigee_km":914.69602796624,"apogee_km":946.41575511552,"semimajor_km":7308.6928915409,"source":"CELESTRAK","updated_at":"2026-09-22T09:00:25.730226Z"}}